Weather History for De Queen, AR

Change the Weather History Date:

Sunday, March 10, 2013

  Actual Average Record
Temperature  
Mean Temperature 52 °F 52 °F  
Max Temperature 65 °F 65 °F 88 °F (1955)
Min Temperature 39 °F 39 °F 12 °F (1996)
Degree Days  
Heating Degree Days 13 13  
Month to date heating degree days 168 147  
Since 1 July heating degree days 2483 2638  
Cooling Degree Days 0 0  
Month to date cooling degree days 0 0  
Year to date cooling degree days 4 2  
Growing Degree Days 2 (Base 50)    
Moisture  
Dew Point 47 °F    
Average Humidity 76    
Maximum Humidity 96    
Minimum Humidity 55    
Precipitation  
Precipitation 0.36 in 0.13 in 1.85 in (1968)
Month to date precipitation 0.36 1.04  
Year to date precipitation 4.32 8.04  
Snow  
Snow 0.00 in - - ()
Month to date snowfall 0.0  
Since 1 July snowfall 4.5  
Snow Depth 0.00 in    
Sea Level Pressure  
Sea Level Pressure 29.80 in    
Wind  
Wind Speed 10 mph (West)    
Max Wind Speed 22 mph    
Max Gust Speed 28 mph    
Visibility 8 miles    
Events Rain    
T = Trace of Precipitation, MM = Missing Value Source: NWS Daily Summary

Daily Weather History Graph

Daily Weather History Graph

Search for Another Location

Airport:

Trip Planner

Search our weather history database for the weather conditions in past years. The results will help you decide how hot, cold, wet, or windy it might be!

Date:

Astronomy

Mar. 10, 2013 Rise Set
Actual Time 7:34 AM CDT 7:21 PM CDT
Civil Twilight 7:09 AM CDT 7:46 PM CDT
Nautical Twilight 6:40 AM CDT 8:15 PM CDT
Astronomical Twilight 6:11 AM CDT 8:44 PM CDT
Moon 6:33 AM CDT (3/10) 6:30 PM CDT (3/10)
Length of Visible Light 12h 37m
Length of Day
11h 47m
Waning Crescent, 2% of the Moon is Illuminated
Mar 10
Waning Crescent
Mar 11
New
Mar 19
First Quarter
Mar 27
Full
Apr 2
Last Quarter

Hourly Weather History & Observations

Time (CDT) Temp. Windchill Dew Point Humidity Pressure Visibility Wind Dir Wind Speed Gust Speed Precip Events Conditions
12:12 AM 64.9 °F - 57.0 °F 75% 29.76 in 10.0 mi SW 9.2 mph - N/A   Overcast
12:53 AM 61.0 °F - 57.0 °F 87% 29.74 in 10.0 mi East 4.6 mph - 0.00 in   Overcast
1:53 AM 63.0 °F - 57.9 °F 84% 29.72 in 9.0 mi SSE 6.9 mph - 0.00 in Rain Light Rain
3:53 AM 64.0 °F - 57.9 °F 80% 29.69 in 10.0 mi South 8.1 mph - 0.00 in Rain Light Rain
4:53 AM 63.0 °F - 59.0 °F 87% 29.67 in 7.0 mi West 9.2 mph - 0.00 in Rain Light Rain
5:01 AM 61.0 °F - 57.0 °F 87% 29.68 in 3.0 mi WNW 13.8 mph 18.4 mph 0.02 in Rain Rain
5:09 AM 57.9 °F - 55.0 °F 90% 29.69 in 2.0 mi WNW 13.8 mph 21.9 mph 0.07 in Rain Rain
5:38 AM 54.0 °F - 53.1 °F 97% 29.71 in 5.0 mi NW 9.2 mph - 0.17 in Rain Light Rain
5:53 AM 54.0 °F - 52.0 °F 93% 29.68 in 2.5 mi NW 9.2 mph - 0.21 in Rain Heavy Rain
6:08 AM 54.0 °F - 51.1 °F 90% 29.70 in 4.0 mi WNW 8.1 mph - 0.02 in Rain Rain
7:22 AM 53.1 °F - 51.1 °F 93% 29.80 in 1.8 mi WNW 10.4 mph - 0.06 in Rain Heavy Rain
7:31 AM 53.1 °F - 51.1 °F 93% 29.79 in 3.0 mi NW 10.4 mph - 0.07 in Rain Rain
7:53 AM 53.1 °F - 50.0 °F 89% 29.77 in 10.0 mi NW 5.8 mph - 0.07 in Rain Light Rain
8:35 AM 52.0 °F - 50.0 °F 93% 29.78 in 1.8 mi Calm Calm - 0.02 in Rain Rain
8:46 AM 52.0 °F - 50.0 °F 93% 29.76 in 3.0 mi East 4.6 mph - 0.02 in Rain Light Rain
8:53 AM 52.0 °F - 50.0 °F 93% 29.74 in 5.0 mi NE 3.5 mph - 0.02 in Rain Light Rain
9:53 AM 53.1 °F - 51.1 °F 93% 29.75 in 4.0 mi SE 6.9 mph - 0.00 in Rain Light Rain
10:53 AM 53.1 °F - 51.1 °F 93% 29.75 in 10.0 mi Calm Calm - 0.00 in   Overcast
11:10 AM 54.0 °F - 51.1 °F 90% 29.76 in 10.0 mi SSW 4.6 mph - 0.00 in Rain Light Rain
11:35 AM 53.1 °F - 51.1 °F 93% 29.77 in 10.0 mi SSW 5.8 mph - 0.00 in   Overcast
11:53 AM 54.0 °F - 50.0 °F 86% 29.79 in 10.0 mi WSW 10.4 mph - 0.00 in   Overcast
12:13 PM 53.1 °F - 46.0 °F 77% 29.82 in 10.0 mi WSW 13.8 mph 23.0 mph N/A   Overcast
12:53 PM 54.0 °F - 44.1 °F 69% 29.82 in 10.0 mi West 13.8 mph - N/A   Overcast
1:53 PM 57.0 °F - 41.0 °F 55% 29.83 in 10.0 mi West 18.4 mph 27.6 mph N/A   Mostly Cloudy
2:53 PM 55.9 °F - 39.0 °F 53% 29.82 in 10.0 mi West 18.4 mph 26.5 mph N/A   Overcast
3:53 PM 52.0 °F - 39.0 °F 61% 29.85 in 10.0 mi WNW 16.1 mph 26.5 mph N/A   Overcast
4:53 PM 51.1 °F - 39.0 °F 63% 29.87 in 10.0 mi WNW 12.7 mph - N/A   Overcast
5:53 PM 48.9 °F - 37.0 °F 64% 29.89 in 10.0 mi WNW 10.4 mph 20.7 mph N/A   Overcast
6:53 PM 46.0 °F 39.9 °F 35.1 °F 66% 29.91 in 10.0 mi WNW 13.8 mph - N/A   Overcast
7:53 PM 45.0 °F 39.7 °F 34.0 °F 65% 29.94 in 10.0 mi WNW 10.4 mph - N/A   Overcast
9:53 PM 43.0 °F 37.2 °F 32.0 °F 65% 29.99 in 10.0 mi WNW 10.4 mph 19.6 mph N/A   Overcast
10:53 PM 42.1 °F 34.5 °F 28.9 °F 60% 29.99 in 10.0 mi WNW 15.0 mph 21.9 mph N/A   Overcast
11:53 PM 41.0 °F 33.9 °F 28.0 °F 60% 30.00 in 10.0 mi WNW 12.7 mph - N/A   Overcast
12:53 AM 39.0 °F 30.6 °F 27.0 °F 62% 29.99 in 10.0 mi NW 15.0 mph - N/A   Overcast